Mauston, WI

10:43 AM CST on March 06, 2015 (GMT -0600)
Alexander Field South Wood County | Change Station
CLOSE
Current Station
Airport
Location: Wisconsin Rapids,
Elevation: 1020 ft
Nearby Weather Stations

Elev 1020 ft 44.36 °N, 89.84 °W | Updated 49 minutes ago

Clear
Clear
17 °F
Feels Like 2 °F
N
16
Wind Variable Wind from SSW

Today
High -- | Low -- °F
--% Chance of Precip.
Yesterday
High -- | Low -- °F
Precip. -- in
6:28 AM 5:55 PM
Full, 99% visible
Pressure 30.21 in
Visibility 10.0 miles
Clouds Mostly Cloudy 11000 ft
Windchill 2 °F
Dew Point 2 °F
Humidity 52%
Rainfall 0.00 in
Snow Depth Not available.
UV 2 out of 12
Pollen .40 out of 12
Air Quality Not available.
Flu Activity Not available.
METAR KISW 061554Z AUTO 20014KT 10SM BKN110 M08/M17 A3015 RMK AO2 SLP230 T10831167

More Conditions Fewer Conditions

Pressure 30.21 in
Visibility 10.0 miles
Clouds Mostly Cloudy 11000 ft
Windchill 2 °F
Dew Point 2 °F
Humidity 52%
Rainfall 0.00 in
Snow Depth Not available.
UV 2 out of 12
Pollen .40 out of 12
Air Quality Not available.
Flu Activity Not available.
METAR KISW 061554Z AUTO 20014KT 10SM BKN110 M08/M17 A3015 RMK AO2 SLP230 T10831167

More Conditions Fewer Conditions

10-Day Weather Forecast

Almanac

Astronomy

Mar. 06, 2015 Rise Set
Actual Time
Civil Twilight
Nautical Twilight
Astronomical Twilight
Moon
Length of Visible Light
Length of Day
Tomorrow will be .
, % of the Moon is Illuminated

Today's Extremes

State Highs State Lows

Community

WunderPhotos

Upload Photos

1,803,336 photos uploaded!

WunderBlogs® & News

Nearby

Air Quality

  Air Quality AQ Index Pollutant
Not available.

Snow Depth

Station Depth Elevation

Earthquake Activity

City Distance Mag. Time & Date
Minimum magnitude displayed is 2.5.

Coastal Water Temperatures

Place Temperature

Nearby Weather Stations